sat.trackr.live / text

‹ back to catalog

STARLINK-36395

NORAD 67554 · 2026-014Y

PAYLOAD ACTIVE UNKNOWN

§ Identity

Operator
Country
US
Launch date
2026-01-22
Launch site
AFWTR
Launch vehicle
Mass (kg)
RCS (m²)

Purposes: comms

External: N2YO · Heavens-Above · Gunter

§ Orbital elements

Epoch: 2026-09-19T21:11:46.956768Z

Period
93.90 min
Inclination
97.2843°
Eccentricity
0.0001301
Mean motion
15.33469880 rev/d
Perigee alt
464.6 km
Apogee alt
466.4 km
Semi-major
6,843.6 km
B*
3.9639e-4
RAAN
151.1562°
Arg perigee
27.5923°
Mean anomaly
332.5388°
Rev number
3,872

§ Raw data

STARLINK-363951 67554U 26014Y   26262.88318237  .00012754  00000+0  39639-3 0  99992 67554  97.2843 151.1562 0001301  27.5923 332.5388 15.33469880 38725

JSON: /api/v1/satellites/67554 · /tle

For live sub-satellite position, see the globe view (requires WebGL).

§ Visibility from observer

Set your observer location to see the next 7 days of passes ≥ 10°. The values pass through the URL so the page stays shareable.

No JS? Fill the form by hand. The geolocation button needs JavaScript.